DateTimeUTC,F1_A11,F1_S11,BsB_S11,BsG_S11,BsR_S11,BbsB_S11,BbsG_S11,BbsR_S11,BaB_A11,BaG_A11,BaR_A11,Tu_S11,T_S11,Uu_S11,U_S11,P_S11,T1_A11
2021-08-12T15:00:00Z,00040200,20000000,,,,,,,0000.03,0000.00,0000.34,19.4,25.7,05.7,03.9,0676.0,31.1
2021-08-12T15:01:00Z,00040200,20000000,,,,,,,-000.12,0000.00,-000.13,19.4,25.7,05.7,03.9,0676.0,31.1
2021-08-12T15:02:00Z,00040200,20000000,,,,,,,0000.11,-000.18,-000.18,19.4,25.7,05.7,03.9,0675.9,31.1
2021-08-12T15:03:00Z,00040200,60000000,,,,,,,-000.02,0000.63,0000.49,19.4,25.7,05.7,03.9,0675.9,31.1
2021-08-12T15:04:00Z,00040200,40000000,0000.83,0000.42,0000.33,-000.31,0000.28,0000.10,0000.45,0000.02,0000.34,19.4,25.5,05.7,03.9,0676.9,31.1
2021-08-12T15:05:00Z,00040200,00000000,0001.22,0000.38,0000.08,0000.34,0000.07,-000.19,-000.00,0000.09,-000.05,19.5,25.5,05.7,04.0,0676.9,31.0
2021-08-12T15:06:00Z,00040200,00000000,0000.50,0000.56,0000.38,-000.26,0000.20,0000.03,0000.17,0000.19,-000.04,19.5,25.5,05.7,03.9,0676.9,31.1
2021-08-12T15:07:00Z,00040200,00000000,0001.51,0000.96,0000.33,-000.54,0000.11,0000.37,-000.10,-000.21,-000.16,19.5,25.5,05.7,04.0,0677.0,31.1
2021-08-12T15:08:00Z,00040200,00000000,0000.53,0000.76,0000.25,0000.19,0000.11,-000.23,0000.44,0000.49,0000.60,19.5,25.5,05.7,04.0,0677.0,31.1
2021-08-12T15:09:00Z,00040200,00000000,0001.26,0000.45,0000.18,-000.05,0000.27,-000.11,-000.03,-000.11,-000.45,19.5,25.5,05.7,04.0,0677.0,31.1
2021-08-12T15:10:00Z,00040200,00000000,0000.61,0000.27,0000.60,0000.29,0000.21,0000.25,0000.10,0000.02,0000.02,19.5,25.5,05.8,04.0,0677.0,31.1
2021-08-12T15:11:00Z,00040200,00000000,0000.51,0000.78,0000.51,0000.21,0000.14,0000.10,-000.08,0000.03,0000.55,19.5,25.5,05.7,04.0,0677.0,31.1
2021-08-12T15:12:00Z,00040200,00000000,0000.72,0000.73,0000.33,-000.21,0000.10,0000.24,0000.07,0000.36,-000.01,19.5,25.5,05.6,03.9,0677.0,31.0
2021-08-12T15:13:00Z,00040200,00000000,0001.04,0000.82,0000.39,0000.31,0000.05,0000.20,0000.32,-000.09,-000.07,19.5,25.5,05.7,03.9,0677.0,31.0
2021-08-12T15:14:00Z,00040200,00000000,0000.95,0000.61,0000.54,0000.38,0000.00,0000.38,0000.07,0000.36,0000.12,19.5,25.5,05.7,03.9,0677.0,31.1
2021-08-12T15:15:00Z,00040200,00000000,0000.84,0000.40,0000.62,-000.27,-000.00,0000.36,0000.38,0000.18,0000.20,19.5,25.5,05.8,04.0,0677.0,31.0
2021-08-12T15:16:00Z,00040200,00000000,0001.04,0000.09,0000.35,0000.63,0000.12,0000.10,0000.13,-000.11,-000.19,19.5,25.5,05.7,03.9,0677.0,31.0
2021-08-12T15:17:00Z,00040200,00000000,0000.97,0000.38,0000.10,0000.78,0000.31,0000.25,0000.01,0000.29,0000.39,19.5,25.5,05.6,03.9,0677.0,31.1
2021-08-12T15:18:00Z,00040200,00000000,0000.79,0000.52,0000.55,0000.61,-000.01,0000.30,0000.31,-000.15,0000.08,19.5,25.5,05.7,04.0,0677.0,31.0
2021-08-12T15:19:00Z,00040200,00000000,0000.58,0000.42,0000.39,0000.44,0000.26,0000.55,-000.14,-000.08,0000.08,19.5,25.5,05.7,03.9,0677.0,31.1
2021-08-12T15:20:00Z,00040200,00000000,0001.02,0000.33,0000.15,0000.23,0000.13,0000.08,0000.13,0000.61,-000.21,19.5,25.5,05.7,04.0,0677.0,31.0
2021-08-12T15:21:00Z,00040200,00000000,0000.81,0000.53,0000.13,-000.18,0000.07,-000.03,-000.22,-000.67,0000.25,19.5,25.5,05.6,03.9,0677.1,31.1
2021-08-12T15:22:00Z,00040200,00000000,0001.14,0000.63,0000.60,0000.23,0000.47,0000.30,0000.00,0000.65,-000.22,19.5,25.5,05.6,03.9,0677.0,31.1
2021-08-12T15:23:00Z,00040200,00000000,0001.65,0000.54,0000.49,0000.27,0000.02,0000.19,0000.59,0000.19,0000.55,19.5,25.5,05.8,04.0,0677.0,31.1
2021-08-12T15:24:00Z,00040200,00000000,0000.55,0000.53,0000.57,-000.31,-000.01,0000.32,0000.21,-000.25,0000.13,19.5,25.5,05.7,03.9,0677.0,31.1
2021-08-12T15:25:00Z,00040200,00000000,0001.22,0000.71,0000.56,-000.64,-000.10,0000.21,0000.31,0000.53,0000.32,19.5,25.5,05.7,03.9,0677.0,31.1
2021-08-12T15:26:00Z,00040200,00000000,0001.23,0000.94,0000.38,0000.35,-000.10,0000.14,-000.42,-000.26,-000.11,19.5,25.5,05.7,04.0,0677.0,31.1
2021-08-12T15:27:00Z,00040200,00000000,0000.65,0000.89,0000.12,-000.11,0000.32,0000.23,0000.42,0000.34,-000.12,19.5,25.5,05.6,03.9,0677.0,31.1
2021-08-12T15:28:00Z,00040200,00000000,0001.38,0000.70,0000.24,0000.40,-000.19,-000.17,0000.02,0000.31,0000.41,19.5,25.5,05.7,04.0,0677.0,31.1
2021-08-12T15:29:00Z,00040200,00000000,0000.47,0000.61,0000.80,-000.47,0000.04,0000.27,0000.40,0000.05,0000.33,19.5,25.5,05.7,03.9,0677.0,31.1
2021-08-12T15:30:00Z,00040200,00000000,0000.77,0001.23,0000.51,0000.24,0000.03,0000.15,0000.26,0000.24,-000.23,19.5,25.5,05.7,04.0,0677.0,31.1
2021-08-12T15:31:00Z,00040200,00000000,0000.83,0000.98,0000.54,0000.25,0000.25,0000.26,0000.22,0000.51,0000.30,19.5,25.5,05.7,04.0,0677.0,31.1
2021-08-12T15:32:00Z,00040200,00000000,0001.34,0000.82,0000.53,0000.18,0000.28,0000.43,0000.40,0000.24,0000.38,19.5,25.5,05.7,04.0,0677.0,31.1
2021-08-12T15:33:00Z,00040200,00000000,0001.71,0000.94,0000.33,-000.16,0000.16,0000.05,0000.13,-000.01,-000.01,19.5,25.5,05.7,04.0,0677.0,31.1
2021-08-12T15:34:00Z,00040200,00000000,0001.18,0001.23,0000.82,0000.06,0000.17,0000.03,-000.13,-000.07,0000.08,19.5,25.5,05.7,03.9,0677.0,31.0
2021-08-12T15:35:00Z,00040200,00000000,0000.98,0001.29,0000.70,0000.27,0000.42,0000.12,0000.77,0000.51,0000.32,19.5,25.5,05.6,03.9,0677.0,31.1
2021-08-12T15:36:00Z,00040200,00000000,0001.24,0000.75,0000.49,0000.48,0000.03,-000.10,-000.10,0000.33,0000.03,19.6,25.5,05.8,04.0,0677.0,31.0
2021-08-12T15:37:00Z,00040200,00000000,0001.21,0001.13,0000.62,-000.17,0000.38,0000.24,0000.07,-000.07,0000.18,19.6,25.5,05.7,04.0,0677.0,31.1
2021-08-12T15:38:00Z,00040200,00000000,0001.96,0001.42,0000.49,-000.09,0000.22,0000.08,0000.28,0000.13,-000.03,19.6,25.5,05.7,04.0,0677.0,31.1
2021-08-12T15:39:00Z,00040200,00000000,0001.31,0001.49,0000.74,0000.23,0000.27,0000.39,0000.13,0000.22,0000.01,19.6,25.5,05.7,04.0,0677.0,31.1
2021-08-12T15:40:00Z,00040200,00000000,0001.29,0000.94,0000.31,-000.39,0000.43,0000.63,0000.48,0000.24,0000.82,19.6,25.5,05.8,04.0,0677.0,31.1
2021-08-12T15:41:00Z,00040200,00000000,0000.89,0001.23,0000.34,0000.31,0000.09,0000.03,0000.00,0000.22,-000.19,19.5,25.5,05.7,04.0,0677.0,31.1
2021-08-12T15:42:00Z,00040200,00000000,0001.53,0000.87,0000.77,0000.29,0000.36,-000.06,0000.34,0000.11,0000.20,19.6,25.5,05.7,04.0,0677.0,31.1
2021-08-12T15:43:00Z,00040200,00000000,0002.03,0001.07,0000.85,-000.27,-000.08,0000.58,0000.27,0000.55,0000.44,19.5,25.5,05.7,04.0,0677.0,31.1
2021-08-12T15:44:00Z,00040200,00000000,0001.11,0001.00,0000.56,-000.07,0000.28,0000.20,0000.68,0000.26,0000.31,19.6,25.5,05.8,04.0,0677.0,31.0
2021-08-12T15:45:00Z,00040200,00000000,0000.94,0000.79,0000.83,0000.18,0000.40,0000.47,0000.14,0000.47,-000.00,19.5,25.5,05.7,04.0,0677.0,31.0
2021-08-12T15:46:00Z,00040200,00000000,0001.15,0000.76,0000.49,0000.04,-000.06,0000.46,0000.24,0000.05,0000.33,19.6,25.5,05.8,04.0,0677.0,31.0
2021-08-12T15:47:00Z,00040200,00000000,0001.27,0001.09,0000.59,0000.14,0000.52,0000.21,0000.12,0000.25,0000.13,19.5,25.5,05.9,04.1,0677.0,31.0
2021-08-12T15:48:00Z,00040200,00000000,0001.08,0000.90,0000.70,-000.26,0000.38,0000.25,-000.06,0000.24,-000.02,19.6,25.5,05.8,04.0,0677.0,31.1
2021-08-12T15:49:00Z,00040200,00000000,0001.58,0000.67,0000.50,0000.31,0000.53,0000.35,0000.63,0000.00,0000.13,19.6,25.5,05.8,04.1,0677.0,31.1
2021-08-12T15:50:00Z,00040200,00000000,0001.74,0000.95,0000.78,0000.50,0000.40,0000.04,-000.16,0000.06,0000.38,19.6,25.5,05.8,04.1,0677.0,31.1
2021-08-12T15:51:00Z,00040200,00000000,0001.06,0001.10,0000.58,0000.16,0000.36,0000.33,0000.32,0000.40,-000.15,19.6,25.5,05.8,04.0,0677.0,31.1
2021-08-12T15:52:00Z,00040200,00000000,0002.31,0000.99,0000.85,0000.10,0000.36,0000.17,0000.55,0000.04,-000.17,19.5,25.5,05.7,04.0,0677.0,31.1
2021-08-12T15:53:00Z,00040200,00000000,0000.97,0000.72,0000.51,0000.13,0000.28,0000.14,0000.13,0000.25,0000.21,19.6,25.5,05.7,04.0,0677.0,31.1
2021-08-12T15:54:00Z,00040200,00000000,0000.63,0001.24,0000.53,-000.23,-000.09,0000.05,-000.03,0000.20,0000.70,19.6,25.5,05.7,04.0,0677.0,31.1
2021-08-12T15:55:00Z,00040200,00000000,0001.52,0000.94,0000.48,0000.01,-000.12,0000.03,0000.20,0000.16,-000.19,19.6,25.5,05.7,04.0,0677.0,31.1
2021-08-12T15:56:00Z,00040200,00000000,0000.88,0000.65,0000.55,0000.33,-000.17,0000.51,0000.55,0000.53,0000.63,19.5,25.5,05.8,04.0,0677.0,31.1
2021-08-12T15:57:00Z,00040200,40000000,,,,,,,-000.23,-000.53,-000.06,19.6,25.5,06.2,04.3,0677.0,31.1
2021-08-12T15:58:00Z,00040200,60000000,,,,,,,-000.11,0000.27,-000.26,19.4,25.6,05.7,03.9,0676.0,31.1
2021-08-12T15:59:00Z,00040200,20000000,,,,,,,0000.00,0000.11,-000.06,19.4,25.7,05.4,03.7,0676.0,31.1
